Regional Weather Roundup
Issued by NWS

Home | Current Version | Previous Version | Graphics & Text | Print | Product List | Glossary On
Versions: 1 2 3 4 5 6 7 8 9 10 11 12 13 14 15 16 17 18 19 20 21 22 23 24 25 26 27 28 29 30 31 32 33 34 35 36 37 38 39 40 41 42 43 44 45 46 47 48 49 50
000
ASUS43 KLMK 052302
RWRKY
KENTUCKY REGIONAL WEATHER ROUNDUP
NATIONAL WEATHER SERVICE LOUISVILLE KY
700 PM EDT TUE MAY 05 2015

NOTE "FAIR" INDICATES FEW OR NO CLOUDS BELOW 12,000 FEET
WITH NO SIGNIFICANT WEATHER AND/OR OBSTRUCTIONS TO VISIBILITY.

KYZ001>023-026-027-061>063-070>075-060000-
WESTERN AND SOUTH CENTRAL KENTUCKY

CITY           SKY/WX    TMP DP  RH WIND       PRES   REMARKS
PADUCAH        MOSUNNY   83  52  34 S9        30.12F
HENDERSON      SUNNY     82  52  34 S8        30.13S
OWENSBORO      SUNNY     83  55  37 SW9       30.15F
HOPKINSVILLE   SUNNY     80  58  47 SW6       30.16S
BOWLING GREEN  SUNNY     83  50  31 SW6       30.17F
GLASGOW        NOT AVBL
$$

KYZ024-025-028>034-038-045-046-053-060000-
NORTH CENTRAL KENTUCKY

CITY           SKY/WX    TMP DP  RH WIND       PRES   REMARKS
LOUISVILLE/SDF MOSUNNY   83  50  31 SW7       30.16F
LOUISVILLE/LOU MOSUNNY   83  50  31 S6        30.17F
FORT KNOX      SUNNY     81  54  38 SW5       30.16F
$$

KYZ035>037-039>044-047>052-055>060-089>105-060000-
NORTHEAST KENTUCKY

CITY           SKY/WX    TMP DP  RH WIND       PRES   REMARKS
LEXINGTON      SUNNY     80  56  43 CALM      30.20F
COVINGTON      MOSUNNY   80  53  39 SW5       30.18F
FRANKFORT      MOSUNNY   81  52  36 SW8       30.18F
$$

KYZ054-064>069-076>088-106>120-060000-
SOUTHEAST KENTUCKY

CITY           SKY/WX    TMP DP  RH WIND       PRES   REMARKS
JACKSON        SUNNY     81  50  33 CALM      30.22F
LONDON         SUNNY     82  46  28 CALM      30.21F
SOMERSET       NOT AVBL
MIDDLESBORO    MOSUNNY   82  50  33 CALM      30.21S
MONTICELLO     CLEAR     82  53  36 CALM      30.23F
$$



USA.gov is the U.S. government's official web portal to all federal, state and local government web resources and services.